Weather History for Gage, OK

Change the Weather History Date:

Wednesday, February 8, 2012

  Actual Average Record
Temperature  
Mean Temperature 29 °F -  
Max Temperature 37 °F 50 °F 78 °F (1957)
Min Temperature 21 °F 21 °F 1 °F (2011)
Degree Days  
Heating Degree Days 36    
Moisture  
Dew Point 23 °F    
Average Humidity 82    
Maximum Humidity 92    
Minimum Humidity 70    
Precipitation  
Precipitation 0.00 in - - ()
Sea Level Pressure  
Sea Level Pressure 30.44 in    
Wind  
Wind Speed 6 mph (ESE)    
Max Wind Speed 10 mph    
Max Gust Speed -    
Visibility 10 miles    
Events      
Averages and records for this station are not official NWS values.
T = Trace of Precipitation, MM = Missing Value Source: NWS Daily Summary

Daily Weather History Graph

Daily Weather History Graph

Search for Another Location

Airport:

Trip Planner

Search our weather history database for the weather conditions in past years. The results will help you decide how hot, cold, wet, or windy it might be!

Date:

Astronomy

Feb. 08, 2012 Rise Set
Actual Time 7:34 AM CST 6:12 PM CST
Civil Twilight 7:07 AM CST 6:39 PM CST
Nautical Twilight 6:37 AM CST 7:09 PM CST
Astronomical Twilight 6:07 AM CST 7:39 PM CST
Moon 7:29 PM CST (2/8) 7:41 AM CST (2/8)
Length of Visible Light 11h 31m
Length of Day
10h 37m
Full, 99% of the Moon is Illuminated
Feb 8
Full
Feb 14
Last Quarter
Feb 21
New
Feb 29
First Quarter
Mar 8
Full

Hourly Weather History & Observations

Time (CST) Temp. Windchill Dew Point Humidity Pressure Visibility Wind Dir Wind Speed Gust Speed Precip Events Conditions
12:53 AM 21.9 °F 14.5 °F 18.0 °F 85% 30.55 in 10.0 mi North 5.8 mph - N/A   Clear
1:35 AM 21.2 °F 13.6 °F 17.6 °F 86% 30.48 in 10.0 mi NNW 5.8 mph - N/A   Mostly Cloudy
1:53 AM 21.9 °F 13.4 °F 19.0 °F 89% 30.54 in 10.0 mi North 6.9 mph - N/A   Overcast
2:53 AM 25.0 °F 14.8 °F 19.9 °F 81% 30.51 in 10.0 mi North 10.4 mph - N/A   Overcast
3:53 AM 25.0 °F 15.5 °F 19.9 °F 81% 30.52 in 10.0 mi North 9.2 mph - N/A   Overcast
4:53 AM 25.0 °F 17.1 °F 19.9 °F 81% 30.53 in 10.0 mi NNW 6.9 mph - N/A   Overcast
5:53 AM 25.0 °F 16.3 °F 21.0 °F 85% 30.54 in 10.0 mi NW 8.1 mph - N/A   Overcast
6:53 AM 25.0 °F 17.1 °F 21.0 °F 85% 30.52 in 10.0 mi North 6.9 mph - N/A   Overcast
7:50 AM 24.8 °F 20.5 °F 21.2 °F 86% 30.47 in 10.0 mi North 3.5 mph - N/A   Overcast
7:53 AM 25.0 °F 20.7 °F 21.0 °F 85% 30.54 in 10.0 mi NNW 3.5 mph - N/A   Overcast
8:16 AM 26.6 °F 21.2 °F 21.2 °F 80% 30.47 in 10.0 mi NNW 4.6 mph - N/A   Overcast
8:53 AM 26.1 °F - 21.9 °F 84% 30.53 in 10.0 mi Calm Calm - N/A   Overcast
9:12 AM 26.6 °F - 21.2 °F 80% 30.46 in 10.0 mi Calm Calm - N/A   Overcast
9:40 AM 26.6 °F - 21.2 °F 80% 30.46 in 10.0 mi Calm Calm - N/A   Overcast
9:53 AM 27.0 °F 23.0 °F 21.9 °F 81% 30.53 in 10.0 mi West 3.5 mph - N/A   Overcast
10:53 AM 28.0 °F - 21.9 °F 78% 30.52 in 10.0 mi Calm Calm - N/A   Overcast
11:53 AM 28.0 °F - 23.0 °F 81% 30.51 in 10.0 mi Calm Calm - N/A   Overcast
12:53 PM 28.9 °F 21.9 °F 24.1 °F 82% 30.46 in 10.0 mi SSE 6.9 mph - N/A   Overcast
1:53 PM 30.9 °F 23.5 °F 25.0 °F 79% 30.42 in 10.0 mi SSW 8.1 mph - N/A   Overcast
2:53 PM 33.1 °F 28.7 °F 27.0 °F 78% 30.38 in 10.0 mi SSW 4.6 mph - N/A   Overcast
3:53 PM 35.1 °F 32.2 °F 28.0 °F 76% 30.35 in 10.0 mi SSE 3.5 mph - N/A   Mostly Cloudy
4:28 PM 37.4 °F 30.8 °F 28.4 °F 70% 30.28 in 10.0 mi South 9.2 mph - N/A   Partly Cloudy
4:53 PM 37.0 °F 30.4 °F 28.0 °F 70% 30.33 in 10.0 mi SSW 9.2 mph - N/A   Partly Cloudy
5:53 PM 34.0 °F 26.0 °F 27.0 °F 75% 30.32 in 10.0 mi SE 10.4 mph - N/A   Scattered Clouds
6:53 PM 30.0 °F 22.4 °F 26.1 °F 85% 30.32 in 10.0 mi SE 8.1 mph - N/A   Clear
7:53 PM 28.0 °F 19.3 °F 25.0 °F 88% 30.33 in 10.0 mi ESE 9.2 mph - N/A   Clear
8:53 PM 28.0 °F 18.6 °F 25.0 °F 88% 30.34 in 10.0 mi SE 10.4 mph - N/A   Clear
9:53 PM 27.0 °F 18.0 °F 25.0 °F 92% 30.33 in 10.0 mi ESE 9.2 mph - N/A   Clear
10:53 PM 27.0 °F 19.5 °F 24.1 °F 89% 30.33 in 9.0 mi SE 6.9 mph - N/A   Clear
11:53 PM 26.1 °F 19.4 °F 24.1 °F 92% 30.33 in 9.0 mi SE 5.8 mph - N/A   Clear